Tracking 34138 objects as of 17-May-2026
HD Live streaming from Space Station
objects crossing your sky now

WESTFORD NEEDLES

Track WESTFORD NEEDLES now!
10-day predictions
WESTFORD NEEDLES is classified as:


NORAD ID: 19059
Int'l Code: 1963-014EG
Perigee: 3,615.0 km
Apogee: 3,668.2 km
Inclination: 87.4 °
Period: 166.2 minutes
Semi major axis: 10012 km
RCS: 0.205 m2 (medium)
Launch date: May 9, 1963
Source: United States (US)
Launch site: AIR FORCE WESTERN TEST RANGE (AFWTR)
Your satellite tracking list
Your tracking list is empty




NASA's NSSDC Master Catalog

Two Line Element Set (TLE):
1 19059U 63014EG  26115.16777297  .00000231  00000-0  10569+0 0  9995
2 19059  87.3566 192.4323 0026562 106.1595 254.2186  8.66533897209186
Source of the keplerian elements: AFSPC